CZ-6A DEB, 54885

Orbit data source: Space-Track

CZ-6A DEB, 54885 is space debris in SSO originally from a launch on Fri, 11 Nov 2022 UTC launched from the Taiyaun Space Center, China (TSC). Debris objects in space refer to the collection of defunct objects orbiting the Earth. Examples of debris include non-operational satellites, rocket bodies, and fragments generated from explosions, collisions, or faulty payload assembly.

Loading next visibility...
Identifier
54885, 2022-151PW
Orbit
SSO
Country
Flag of CNCN / PRC
Related business
Manufacturer
SAST
Mission
Spacecraft
Bus & Motor
Unknown
Mass
Unknown
Launch date (UTC)
2022-11-11 (3 years ago)
Launch vehicle
Unknown
Launch site
Taiyaun Space Center, China (TSC)
Object type
Payload
Rocket body
Debris
Shape & HBR
Unknown shape, 0.1 m
Radar Cross Section
Small (<0.1 m²)

Expand to show TLE details & history
Last TLE update: 18 hours ago

TLE from 18 hours ago
0 CZ-6A DEB
1 54885U 22151PW  25351.96130174  .00001542  00000-0  81079-3 0  9998
2 54885  98.8164 350.4476 0049574 133.8415 226.6872 14.14900326156826
Epoch: 2025-12-17T23:04Z
TLE epoch observation values (Epoch: 2025-12-17T23:04:16.470Z)
Latitude
-0°
Longitude
-82.44468°
Altitude
870.209 km
Speed
7.405 km/s
True Right ascension
23h 21m 47s
True Declination
0° 00' 00"
Sunlit
Object was in daylight at epoch
Visualization orbit readout
Latitude
Unknown
Longitude
Unknown
Altitude
Unknown
Speed
Unknown
Apparent Right ascension
Unknown
Apparent Declination
Unknown
Sunlit
N/A
Visualization observer readout
Local Sidereal Time
16:18:16
Azimuth
Unknown
Elevation
Unknown
Doppler factor
Unknown
Orbital elements
Apogee altitude
875.604 km
Perigee altitude
804.039 km
Semi-major axis
7,217.959 km
Eccentricity
0.00496
Inclination
98.8164°
RAAN
350.4476°
Arg. of periapsis
133.8415°
True anomaly
226.27561°
Mean anomaly
226.6872°
Eccentric anomaly
226.48123°
Mean motion
3.53933 °/min
Orbital period
101.71 mins
BSTAR
0.00081079
Loading maneuver chart data...
Computing Atmospheric mass density...
Loading historical data...
Loading historical data...
Loading historical data...
Loading historical data...
Loading historical data...
Loading historical data...
Loading historical data...

Documentation

Showing up to 5 results
|